Flag for Moldova Weather past 2 weeks in Bălți, Moldova

Now
59 °F

Refreshingly cool.


Feels Like: 57 °F
Forecast: 42 / 57 °F
Wind: 12 mph from East

Location: Baltsi-Leadoveni - The North of Moldova

Current Time: Oct 2, 2014 at 4:17:59 PM

Latest Report: Oct 2, 2014 at 4:00 PM


Visibility: N/A

Pressure: 30.42 "Hg

Humidity: 45%

Dew point: 37 °F

Location of BălțiLocation

Historic Weather in Bălți — Graph

°F

Bălți temperature yesterday

Maximum temperature yesterday: 66 °F (at 2:00 PM)
Minimum temperature yesterday: 54 °F (at 11:30 PM)
Average temperature yesterday: 60 °F

Past Weeks' High & Low Weather Summary

 TemperatureHumidityPressure
High75 °F (Sep 22, 2:30 PM)100% (Sep 22, 8:00 AM)30.45 "Hg (Sep 22, 8:00 AM)
Low37 °F (Sep 25, 6:30 AM)22% (Sep 20, 4:00 PM)29.62 "Hg (Sep 22, 4:30 PM)
Average57 °F62%30.10 "Hg
* Reported Sep 17 3:00 PM — Oct 2 3:00 PM, Bălți, Weather by CustomWeather, © 2014

Note: Actual official high and low records may vary slightly from our data, if they occured in-between our weather recording intervals... More about our weather records

Advertising

Bălți weather history for previous 24 hours

 ConditionsComfort  
Time TempWeatherWind HumidityBarometerVisibility
3:00 PM
Oct 2
59 °FRefreshingly cool.14 mph45%30.42 "HgN/A
2:30 PM59 °FRefreshingly cool.13 mph45%30.42 "HgN/A
2:00 PM59 °FRefreshingly cool.12 mph45%30.42 "HgN/A
1:30 PM59 °FRefreshingly cool.12 mph45%30.45 "HgN/A
1:00 PM57 °FRefreshingly cool.12 mph48%30.45 "HgN/A
12:30 PM57 °FRefreshingly cool.13 mph48%30.45 "HgN/A
12:00 PM55 °FRefreshingly cool.13 mph51%30.45 "HgN/A
11:30 AM55 °FRefreshingly cool.13 mph51%30.45 "HgN/A
11:00 AM55 °FRefreshingly cool.13 mph51%30.42 "HgN/A
10:30 AM54 °FCool.12 mph54%30.42 "HgN/A
10:00 AM54 °FCool.10 mph54%30.42 "HgN/A
9:30 AM52 °FCool.13 mph54%30.42 "HgN/A
9:00 AM50 °FCool.10 mph58%30.42 "HgN/A
8:30 AM48 °FCool.8 mph62%30.42 "HgN/A
8:00 AM48 °FCool.8 mph62%30.39 "HgN/A
7:30 AM48 °FCool.9 mph62%30.39 "HgN/A
7:00 AM48 °FCool.8 mph62%30.39 "HgN/A
6:30 AM48 °FCool.9 mph62%30.39 "HgN/A
6:00 AM48 °FCool.9 mph62%30.39 "HgN/A
5:30 AM48 °FCool.10 mph62%30.39 "HgN/A
5:00 AM48 °FCool.9 mph62%30.39 "HgN/A
4:30 AM50 °FCool.12 mph62%30.39 "HgN/A
4:00 AM52 °FCool.12 mph58%30.39 "HgN/A
3:30 AM52 °FCool.12 mph58%30.39 "HgN/A
3:00 AM52 °FCool.12 mph58%30.39 "HgN/A
2:30 AM50 °FCool.10 mph62%30.39 "HgN/A
2:00 AM52 °FCool.12 mph62%30.39 "HgN/A
1:30 AM52 °FCool.10 mph62%30.39 "HgN/A
1:00 AM52 °FCool.12 mph62%30.39 "HgN/A
12:30 AM52 °FCool.10 mph62%30.36 "HgN/A
12:00 AM52 °FCool.12 mph67%30.36 "HgN/A
11:30 PM
Oct 1
54 °FCool.10 mph63%30.36 "HgN/A
11:00 PM55 °FRefreshingly cool.13 mph59%30.36 "HgN/A
10:30 PM55 °FCool.13 mph63%30.36 "HgN/A
10:00 PM55 °FCool.9 mph63%30.33 "HgN/A
9:30 PM55 °FCool.9 mph67%30.33 "HgN/A
9:00 PM57 °FCool.7 mph63%30.33 "HgN/A
8:30 PM57 °FCool.6 mph63%30.33 "HgN/A
8:00 PM57 °FCool.5 mph67%30.30 "HgN/A
7:30 PM59 °FCool.5 mph63%30.30 "HgN/A
7:00 PM59 °FCool.6 mph63%30.30 "HgN/A
6:30 PM61 °FRefreshingly cool.7 mph59%30.30 "HgN/A
6:00 PM63 °FMild.7 mph56%30.30 "HgN/A
5:30 PM63 °FMild.5 mph56%30.30 "HgN/A
5:00 PM64 °FMild.5 mph52%30.27 "HgN/A
4:30 PM64 °FMild.8 mph52%30.27 "HgN/A
4:00 PM64 °FMild.7 mph52%30.30 "HgN/A
Weather by CustomWeather, © 2014

See weather overviewHow to use our weather pages